Date String (YYYY-MM-DD hh:mm:ss) UTC,Instrument flags,Ambient pressure (hPa),Sample flow (lpm),Bypass flow (lpm),Sample temperature (°C),Ambient temperature (°C),ASC tube jacket temperature (°C),LED temperature (°C),Box temperature (°C),Sample RH (%),Span deviation,Mass concentration (μg/m³),Mass concentration (μg/m³),Mass concentration (μg/m³)
DateTimeUTC,F1_M11,P_M11,Q1_M11,Q2_M11,T1_M11,T2_M11,T3_M11,T4_M11,T5_M11,U1_M11,ZSPAN_M11,X0_M11,X2_M11,X1_M11
2022-05-25 00:00:00,,0824.4,4.99,0.00,28.7,27.6,00.0,37.7,30.4,16.8,0000.0,0008.45,0004.61,0004.27
2022-05-25 00:01:00,,0824.4,4.99,0.00,28.6,27.6,00.0,37.7,30.4,16.7,0000.0,0008.47,0004.60,0004.27
2022-05-25 00:02:00,,0824.4,5.01,0.00,28.6,27.6,00.0,37.7,30.4,16.9,0000.0,0008.81,0004.61,0004.26
2022-05-25 00:03:00,,0824.4,5.01,0.00,28.6,27.6,00.0,37.7,30.4,16.7,0000.0,0009.90,0004.63,0004.27
2022-05-25 00:04:00,,0824.4,5.00,0.00,28.6,27.6,00.0,37.7,30.4,16.8,0000.0,0009.89,0004.59,0004.24
2022-05-25 00:05:00,,0824.5,5.00,0.00,28.6,27.6,00.0,37.6,30.4,16.8,0000.0,0009.82,0004.55,0004.21
2022-05-25 00:06:00,,0824.4,5.00,0.00,28.6,27.6,00.0,37.6,30.4,17.2,0000.0,0009.88,0004.52,0004.19
2022-05-25 00:07:00,,0824.4,4.99,0.00,28.6,27.6,00.0,37.6,30.4,17.1,0000.0,0009.84,0004.48,0004.15
2022-05-25 00:08:00,,0824.4,5.00,0.00,28.6,27.6,00.0,37.6,30.4,16.9,0000.0,0009.36,0004.42,0004.11
2022-05-25 00:09:00,,0824.4,5.00,0.00,28.6,27.5,00.0,37.6,30.3,16.6,0000.0,0009.08,0004.40,0004.10
2022-05-25 00:10:00,,0824.4,5.00,0.00,28.6,27.5,00.0,37.6,30.3,17.1,0000.0,0009.09,0004.40,0004.09
2022-05-25 00:11:00,,0824.4,5.00,0.00,28.6,27.5,00.0,37.6,30.4,17.3,0000.0,0008.81,0004.38,0004.06
2022-05-25 00:12:00,,0824.4,5.00,0.00,28.6,27.5,00.0,37.6,30.4,17.2,0000.0,0008.84,0004.38,0004.03
2022-05-25 00:13:00,,0824.5,5.00,0.00,28.6,27.5,00.0,37.6,30.4,16.6,0000.0,0008.81,0004.44,0004.08
2022-05-25 00:14:00,,0824.5,5.00,0.00,28.6,27.5,00.0,37.6,30.4,16.7,0000.0,0007.84,0004.45,0004.11
2022-05-25 00:15:00,,0824.4,5.00,0.00,28.6,27.6,00.0,37.6,30.4,16.9,0000.0,0007.97,0004.51,0004.15
2022-05-25 00:16:00,,0824.4,5.00,0.00,28.6,27.5,00.0,37.6,30.3,16.7,0000.0,0008.08,0004.55,0004.19
2022-05-25 00:17:00,,0824.5,5.00,0.00,28.5,27.5,00.0,37.6,30.3,16.8,0000.0,0008.11,0004.62,0004.22
2022-05-25 00:18:00,,0824.4,5.00,0.00,28.5,27.5,00.0,37.6,30.3,17.2,0000.0,0008.07,0004.62,0004.23
2022-05-25 00:19:00,,0824.5,5.00,0.00,28.5,27.5,00.0,37.5,30.3,17.0,0000.0,0007.86,0004.63,0004.25
2022-05-25 00:20:00,,0824.4,5.00,0.00,28.5,27.5,00.0,37.5,30.3,16.8,0000.0,0007.98,0004.67,0004.26
2022-05-25 00:21:00,,0824.5,5.00,0.00,28.5,27.5,00.0,37.5,30.3,16.8,0000.0,0008.07,0004.68,0004.26
2022-05-25 00:22:00,,0824.5,5.00,0.00,28.5,27.5,00.0,37.5,30.3,16.7,0000.0,0008.01,0004.67,0004.28
2022-05-25 00:23:00,,0824.5,5.01,0.00,28.5,27.5,00.0,37.5,30.3,16.6,0000.0,0007.93,0004.69,0004.33
2022-05-25 00:24:00,,0824.5,5.00,0.00,28.5,27.4,00.0,37.5,30.2,17.0,-000.0,0007.82,0004.65,0004.32
2022-05-25 00:25:00,,0824.5,5.01,0.00,28.5,27.4,00.0,37.5,30.2,17.1,-000.0,0007.65,0004.57,0004.24
2022-05-25 00:26:00,,0824.5,4.99,0.00,28.4,27.4,00.0,37.5,30.2,17.2,-000.4,0007.26,0004.49,0004.16
2022-05-25 00:27:00,,0824.5,4.99,0.00,28.4,27.4,00.0,37.5,30.2,16.8,-000.3,0006.95,0004.36,0004.05
2022-05-25 00:28:00,,0824.5,5.01,0.00,28.4,27.3,00.0,37.5,30.2,17.1,0000.0,0006.91,0004.26,0003.98
2022-05-25 00:29:00,,0824.5,5.01,0.00,28.4,27.3,00.0,37.5,30.2,17.0,0000.0,0007.62,0004.24,0003.95
2022-05-25 00:30:00,,0824.5,4.99,0.00,28.4,27.3,00.0,37.5,30.2,16.8,0000.0,0007.61,0004.18,0003.88
2022-05-25 00:31:00,,0824.6,5.00,0.00,28.4,27.3,00.0,37.4,30.2,16.6,0000.0,0007.71,0004.08,0003.79
2022-05-25 00:32:00,,0824.6,5.01,0.00,28.4,27.3,00.0,37.4,30.2,16.5,0000.0,0007.50,0003.97,0003.70
2022-05-25 00:33:00,,0824.6,5.00,0.00,28.4,27.3,00.0,37.4,30.2,16.6,0000.0,0007.34,0003.88,0003.62
2022-05-25 00:34:00,,0824.6,5.00,0.00,28.4,27.3,00.0,37.4,30.2,16.7,0000.0,0007.17,0003.79,0003.51
2022-05-25 00:35:00,,0824.6,5.00,0.00,28.4,27.3,00.0,37.4,30.2,16.9,0000.0,0007.12,0003.73,0003.44
2022-05-25 00:36:00,,0824.6,5.00,0.00,28.4,27.3,00.0,37.4,30.2,17.0,0000.0,0007.06,0003.68,0003.39
2022-05-25 00:37:00,,0824.6,5.00,0.00,28.4,27.3,00.0,37.4,30.1,16.8,0000.0,0006.92,0003.64,0003.37
2022-05-25 00:38:00,,0824.7,5.00,0.00,28.4,27.3,00.0,37.4,30.1,16.6,0000.0,0006.92,0003.65,0003.37
2022-05-25 00:39:00,,0824.6,5.00,0.00,28.3,27.3,00.0,37.4,30.1,16.8,0000.0,0006.72,0003.64,0003.34
2022-05-25 00:40:00,,0824.6,5.00,0.00,28.3,27.3,00.0,37.4,30.1,16.6,0000.0,0006.15,0003.58,0003.29
2022-05-25 00:41:00,,0824.6,4.99,0.00,28.3,27.3,00.0,37.4,30.1,16.5,0000.0,0006.13,0003.57,0003.26
2022-05-25 00:42:00,,0824.6,5.00,0.00,28.3,27.3,00.0,37.4,30.1,16.5,0000.0,0005.71,0003.54,0003.24
2022-05-25 00:43:00,,0824.6,5.00,0.00,28.3,27.3,00.0,37.4,30.1,16.7,0000.0,0005.54,0003.51,0003.21
2022-05-25 00:44:00,,0824.6,5.01,0.00,28.4,27.3,00.0,37.3,30.2,16.7,0000.0,0005.57,0003.50,0003.18
2022-05-25 00:45:00,,0824.7,5.00,0.00,28.4,27.3,00.0,37.3,30.2,16.7,0000.0,0005.69,0003.50,0003.17
2022-05-25 00:46:00,,0824.6,5.00,0.00,28.4,27.3,00.0,37.4,30.2,16.5,0000.0,0005.69,0003.47,0003.15
2022-05-25 00:47:00,,0824.6,5.00,0.00,28.4,27.4,00.0,37.4,30.2,16.4,0000.0,0005.90,0003.49,0003.15
2022-05-25 00:48:00,,0824.6,5.00,0.00,28.4,27.4,00.0,37.4,30.2,16.3,0000.0,0006.10,0003.53,0003.16
2022-05-25 00:49:00,,0824.7,4.99,0.00,28.4,27.4,00.0,37.3,30.2,16.4,0000.0,0006.21,0003.52,0003.14
2022-05-25 00:50:00,,0824.7,5.00,0.00,28.4,27.4,00.0,37.3,30.3,16.3,0000.0,0006.12,0003.52,0003.12
2022-05-25 00:51:00,,0824.7,5.00,0.00,28.4,27.4,00.0,37.3,30.3,16.2,0000.0,0005.63,0003.50,0003.10
2022-05-25 00:52:00,,0824.7,5.00,0.00,28.4,27.4,00.0,37.3,30.3,16.3,0000.0,0005.54,0003.49,0003.10
2022-05-25 00:53:00,,0824.8,5.01,0.00,28.5,27.4,00.0,37.4,30.3,16.2,0000.0,0005.61,0003.51,0003.11
2022-05-25 00:54:00,,0824.9,5.00,0.00,28.5,27.4,00.0,37.4,30.3,16.3,0000.0,0005.61,0003.51,0003.10
2022-05-25 00:55:00,,0824.9,5.00,0.00,28.5,27.4,00.0,37.4,30.3,16.3,0000.0,0005.59,0003.50,0003.10
2022-05-25 00:56:00,,0824.9,5.00,0.00,28.5,27.5,00.0,37.4,30.3,16.3,0000.0,0005.50,0003.50,0003.09
2022-05-25 00:57:00,,0824.9,5.00,0.00,28.5,27.5,00.0,37.4,30.4,16.4,0000.0,0005.48,0003.49,0003.08
2022-05-25 00:58:00,,0824.9,5.00,0.00,28.5,27.5,00.0,37.4,30.4,16.5,0000.0,0005.23,0003.46,0003.06
2022-05-25 00:59:00,,0824.9,5.00,0.00,28.5,27.5,00.0,37.4,30.4,16.3,0000.0,0005.07,0003.43,0003.05
